GDASA EBAW-EGLC

Flight info

Callsign GDASA
Flight time 0h 39m
Altitude 24000
Route NIK L179 KEGIT L608 SUMUM
Aircraft C750/M-SBDE3FGHRWXY/S

Departure

Time 2026-04-15 10:53
Airport Antwerp International Airport (Deurne) (EBAW)

Arrival

Time 2026-04-15 11:33
Airport London City Airport (EGLC)
Time Latitude Longitude Altitude Speed Heading
2026-04-15 10:30 51.18780 4.45295 35 ft 0 kts 326°
2026-04-15 10:48 51.18781 4.45294 62 ft 1 kts 326°
2026-04-15 10:48 51.18794 4.45289 35 ft 2 kts 358°
2026-04-15 10:49 51.18817 4.45290 35 ft 4 kts
2026-04-15 10:49 51.18841 4.45286 35 ft 4 kts 345°
2026-04-15 10:49 51.18891 4.45283 35 ft 11 kts 21°
2026-04-15 10:49 51.18940 4.45360 35 ft 10 kts 54°
2026-04-15 10:50 51.18973 4.45438 35 ft 7 kts 55°
2026-04-15 10:50 51.18988 4.45469 35 ft 0 kts 51°
2026-04-15 10:50 51.19007 4.45502 35 ft 7 kts 37°
2026-04-15 10:50 51.19047 4.45499 35 ft 5 kts 321°
2026-04-15 10:51 51.19074 4.45459 35 ft 5 kts 318°
2026-04-15 10:51 51.19109 4.45419 35 ft 8 kts 326°
2026-04-15 10:51 51.19153 4.45367 36 ft 7 kts 322°
2026-04-15 10:51 51.19182 4.45331 37 ft 4 kts 322°
2026-04-15 10:52 51.19208 4.45312 38 ft 3 kts 354°
2026-04-15 10:52 51.19219 4.45325 38 ft 3 kts 66°
2026-04-15 10:52 51.19215 4.45358 38 ft 0 kts 109°
2026-04-15 10:53 51.19153 4.45624 38 ft 78 kts 109°
2026-04-15 10:53 51.18854 4.46914 182 ft 143 kts 115°
2026-04-15 10:53 51.18522 4.48439 909 ft 148 kts 115°
2026-04-15 10:54 51.18179 4.50007 1628 ft 152 kts 116°
2026-04-15 10:54 51.17605 4.51376 2304 ft 151 kts 145°
2026-04-15 10:54 51.16667 4.52164 2971 ft 160 kts 166°
2026-04-15 10:54 51.15502 4.52416 3472 ft 179 kts 184°
2026-04-15 10:55 51.14287 4.51726 4111 ft 198 kts 215°
2026-04-15 10:55 51.13346 4.50115 5227 ft 196 kts 225°
2026-04-15 10:55 51.12401 4.48586 6322 ft 196 kts 222°
2026-04-15 10:55 51.11474 4.46896 7064 ft 215 kts 237°
2026-04-15 10:56 51.11035 4.44397 7307 ft 259 kts 266°
2026-04-15 10:56 51.11344 4.41475 8129 ft 273 kts 283°
2026-04-15 10:56 51.11961 4.38603 9338 ft 276 kts 289°
2026-04-15 10:56 51.12769 4.35800 10365 ft 280 kts 292°
2026-04-15 10:57 51.13587 4.32947 11121 ft 288 kts 290°
2026-04-15 10:57 51.14835 4.26432 11851 ft 328 kts 280°
2026-04-15 10:57 51.15373 4.22782 12206 ft 346 kts 284°
2026-04-15 10:58 51.16252 4.19166 12884 ft 353 kts 292°
2026-04-15 10:58 51.17282 4.15628 13740 ft 353 kts 291°
2026-04-15 10:58 51.18130 4.11927 14357 ft 357 kts 285°
2026-04-15 10:58 51.18824 4.08121 15050 ft 359 kts 283°
2026-04-15 10:59 51.19582 4.04304 15675 ft 364 kts 287°
2026-04-15 10:59 51.20493 4.00525 16414 ft 366 kts 289°
2026-04-15 10:59 51.21401 3.96717 17103 ft 369 kts 288°
2026-04-15 10:59 51.22241 3.92820 17794 ft 373 kts 287°
2026-04-15 11:00 51.23082 3.88887 18495 ft 377 kts 288°
2026-04-15 11:00 51.23974 3.84929 19132 ft 381 kts 288°
2026-04-15 11:00 51.24874 3.80951 19837 ft 382 kts 288°
2026-04-15 11:00 51.25760 3.76926 20483 ft 387 kts 287°
2026-04-15 11:01 51.26649 3.72848 21142 ft 391 kts 287°
2026-04-15 11:01 51.27555 3.68736 21822 ft 395 kts 287°
2026-04-15 11:01 51.28476 3.64573 22470 ft 399 kts 287°
2026-04-15 11:01 51.29399 3.60367 23094 ft 403 kts 287°
2026-04-15 11:02 51.30327 3.56115 23746 ft 407 kts 287°
2026-04-15 11:02 51.31255 3.51862 24136 ft 415 kts 287°
2026-04-15 11:02 51.32236 3.47355 24143 ft 433 kts 287°
2026-04-15 11:02 51.33245 3.42720 24143 ft 449 kts 287°
2026-04-15 11:03 51.34271 3.37999 24150 ft 462 kts 287°
2026-04-15 11:03 51.35380 3.33098 24154 ft 475 kts 288°
2026-04-15 11:03 51.36572 3.28133 24147 ft 480 kts 288°
2026-04-15 11:03 51.37759 3.23129 24144 ft 482 kts 288°
2026-04-15 11:04 51.38936 3.18127 24145 ft 475 kts 288°
2026-04-15 11:04 51.40100 3.13192 24139 ft 474 kts 288°
2026-04-15 11:04 51.41269 3.08234 24140 ft 476 kts 288°
2026-04-15 11:04 51.42437 3.03274 24138 ft 476 kts 288°
2026-04-15 11:05 51.43604 2.98309 24138 ft 476 kts 288°
2026-04-15 11:05 51.44767 2.93340 24137 ft 476 kts 288°
2026-04-15 11:05 51.45930 2.88366 24136 ft 476 kts 288°
2026-04-15 11:05 51.47091 2.83390 24136 ft 477 kts 287°
2026-04-15 11:06 51.48250 2.78409 24133 ft 477 kts 287°
2026-04-15 11:06 51.49408 2.73415 24133 ft 477 kts 287°
2026-04-15 11:06 51.50563 2.68428 24131 ft 477 kts 287°
2026-04-15 11:06 51.51720 2.63422 24131 ft 477 kts 287°
2026-04-15 11:07 51.52866 2.58450 24128 ft 477 kts 287°
2026-04-15 11:07 51.54014 2.53455 24128 ft 477 kts 287°
2026-04-15 11:07 51.55151 2.48509 23839 ft 460 kts 287°
2026-04-15 11:07 51.56230 2.43814 23100 ft 436 kts 287°
2026-04-15 11:08 51.57237 2.39399 22648 ft 406 kts 286°
2026-04-15 11:08 51.58191 2.35196 21448 ft 398 kts 286°
2026-04-15 11:08 51.59132 2.31038 20359 ft 391 kts 286°
2026-04-15 11:08 51.60065 2.26954 19225 ft 387 kts 286°
2026-04-15 11:09 51.60977 2.22955 18890 ft 374 kts 286°
2026-04-15 11:09 51.61876 2.18982 18440 ft 380 kts 286°
2026-04-15 11:09 51.62773 2.15001 17906 ft 376 kts 286°
2026-04-15 11:09 51.63667 2.11052 17401 ft 375 kts 286°
2026-04-15 11:10 51.64555 2.07115 16922 ft 373 kts 286°
2026-04-15 11:10 51.65434 2.03193 16432 ft 371 kts 286°
2026-04-15 11:10 51.66012 2.00610 16116 ft 370 kts 286°
2026-04-15 11:10 51.66880 1.96730 15634 ft 368 kts 286°
2026-04-15 11:11 51.67745 1.92858 15143 ft 366 kts 286°
2026-04-15 11:11 51.68593 1.89069 14463 ft 351 kts 286°
2026-04-15 11:11 51.69403 1.85439 13772 ft 338 kts 285°
2026-04-15 11:11 51.70428 1.80817 12805 ft 323 kts 285°
2026-04-15 11:12 51.70933 1.78536 12332 ft 317 kts 285°
2026-04-15 11:12 51.71659 1.75262 11970 ft 300 kts 285°
2026-04-15 11:12 51.72344 1.72174 11429 ft 290 kts 285°
2026-04-15 11:12 51.73018 1.69095 10707 ft 290 kts 284°
2026-04-15 11:13 51.73691 1.66037 10075 ft 288 kts 284°
2026-04-15 11:13 51.74357 1.63011 9391 ft 284 kts 284°
2026-04-15 11:13 51.74661 1.59958 8979 ft 265 kts 263°
2026-04-15 11:13 51.74502 1.57181 9085 ft 235 kts 259°
2026-04-15 11:14 51.74347 1.54631 9061 ft 222 kts 259°
2026-04-15 11:14 51.74188 1.52173 8995 ft 217 kts 258°
2026-04-15 11:14 51.74023 1.49682 8324 ft 234 kts 259°
2026-04-15 11:14 51.73855 1.47065 8084 ft 227 kts 259°
2026-04-15 11:15 51.73706 1.44633 8083 ft 216 kts 258°
2026-04-15 11:15 51.73327 1.42351 8048 ft 207 kts 238°
2026-04-15 11:15 51.72473 1.40502 8087 ft 207 kts 227°
2026-04-15 11:15 51.71544 1.38712 8090 ft 209 kts 228°
2026-04-15 11:16 51.70612 1.36881 8101 ft 214 kts 228°
2026-04-15 11:16 51.69685 1.35062 7991 ft 207 kts 228°
2026-04-15 11:16 51.68758 1.33252 7563 ft 210 kts 228°
2026-04-15 11:16 51.67833 1.31448 7209 ft 208 kts 228°
2026-04-15 11:17 51.66914 1.29657 6819 ft 207 kts 228°
2026-04-15 11:17 51.66002 1.27881 6433 ft 206 kts 228°
2026-04-15 11:17 51.65066 1.26062 6039 ft 213 kts 228°
2026-04-15 11:17 51.64150 1.24276 6035 ft 202 kts 229°
2026-04-15 11:18 51.63261 1.22549 6040 ft 200 kts 229°
2026-04-15 11:18 51.62373 1.20823 6042 ft 201 kts 229°
2026-04-15 11:18 51.61475 1.19081 6047 ft 203 kts 228°
2026-04-15 11:18 51.60572 1.17329 6054 ft 204 kts 228°
2026-04-15 11:19 51.59663 1.15566 6047 ft 205 kts 228°
2026-04-15 11:19 51.58747 1.13798 6044 ft 206 kts 228°
2026-04-15 11:19 51.57833 1.12037 6044 ft 205 kts 228°
2026-04-15 11:19 51.56921 1.10272 6045 ft 205 kts 228°
2026-04-15 11:20 51.56015 1.08509 6036 ft 204 kts 229°
2026-04-15 11:20 51.55111 1.06758 6034 ft 204 kts 228°
2026-04-15 11:20 51.54203 1.05007 6035 ft 203 kts 228°
2026-04-15 11:20 51.53310 1.03284 6037 ft 204 kts 229°
2026-04-15 11:21 51.52402 1.01534 6041 ft 204 kts 228°
2026-04-15 11:21 51.51492 0.99780 6046 ft 205 kts 228°
2026-04-15 11:21 51.50581 0.98024 6037 ft 204 kts 228°
2026-04-15 11:21 51.49675 0.96283 6037 ft 203 kts 228°
2026-04-15 11:22 51.48772 0.94547 6042 ft 203 kts 227°
2026-04-15 11:22 51.47918 0.92743 6003 ft 206 kts 238°
2026-04-15 11:22 51.47547 0.90493 6001 ft 213 kts 261°
2026-04-15 11:22 51.47623 0.88107 6028 ft 215 kts 268°
2026-04-15 11:23 51.47723 0.85705 6030 ft 216 kts 267°
2026-04-15 11:23 51.47811 0.83293 6028 ft 217 kts 267°
2026-04-15 11:23 51.47903 0.80898 5953 ft 212 kts 267°
2026-04-15 11:23 51.47992 0.78514 5670 ft 215 kts 267°
2026-04-15 11:24 51.48082 0.76148 5575 ft 214 kts 267°
2026-04-15 11:24 51.48171 0.73739 5425 ft 215 kts 267°
2026-04-15 11:24 51.48262 0.71357 5269 ft 213 kts 267°
2026-04-15 11:24 51.48349 0.68989 5044 ft 211 kts 267°
2026-04-15 11:25 51.48436 0.66642 4627 ft 211 kts 267°
2026-04-15 11:25 51.48521 0.64304 4273 ft 209 kts 267°
2026-04-15 11:25 51.48606 0.61930 4005 ft 213 kts 267°
2026-04-15 11:25 51.48694 0.59612 4012 ft 205 kts 267°
2026-04-15 11:26 51.48775 0.57329 4012 ft 205 kts 267°
2026-04-15 11:26 51.48856 0.55035 4016 ft 207 kts 267°
2026-04-15 11:26 51.48938 0.52722 4020 ft 208 kts 267°
2026-04-15 11:26 51.49021 0.50401 4025 ft 208 kts 267°
2026-04-15 11:27 51.49103 0.48076 4024 ft 209 kts 267°
2026-04-15 11:27 51.49185 0.45752 4021 ft 208 kts 266°
2026-04-15 11:27 51.49266 0.43447 4022 ft 206 kts 266°
2026-04-15 11:27 51.49345 0.41152 4023 ft 206 kts 266°
2026-04-15 11:28 51.49424 0.38861 4021 ft 206 kts 266°
2026-04-15 11:28 51.49503 0.36569 4016 ft 206 kts 266°
2026-04-15 11:28 51.49581 0.34291 3942 ft 202 kts 266°
2026-04-15 11:28 51.49658 0.32082 3761 ft 194 kts 266°
2026-04-15 11:29 51.49731 0.29985 3568 ft 182 kts 266°
2026-04-15 11:29 51.49797 0.28013 3373 ft 172 kts 266°
2026-04-15 11:29 51.49858 0.26110 3126 ft 170 kts 265°
2026-04-15 11:29 51.49920 0.24236 3007 ft 164 kts 265°
2026-04-15 11:30 51.49972 0.22455 2997 ft 161 kts 264°
2026-04-15 11:30 51.50033 0.20706 3005 ft 147 kts 264°
2026-04-15 11:30 51.50084 0.19238 2937 ft 120 kts 262°
2026-04-15 11:30 51.50119 0.17901 2571 ft 115 kts 262°
2026-04-15 11:31 51.50163 0.16667 2310 ft 112 kts 261°
2026-04-15 11:31 51.50202 0.15422 2074 ft 112 kts 261°
2026-04-15 11:31 51.50236 0.14128 1769 ft 114 kts 263°
2026-04-15 11:31 51.50275 0.12857 1472 ft 117 kts 264°
2026-04-15 11:32 51.50326 0.11558 1169 ft 119 kts 263°
2026-04-15 11:32 51.50377 0.10246 904 ft 116 kts 263°
2026-04-15 11:32 51.50409 0.08945 585 ft 118 kts 262°
2026-04-15 11:32 51.50455 0.07599 288 ft 124 kts 264°
2026-04-15 11:33 51.50502 0.06204 32 ft 121 kts 264°
2026-04-15 11:33 51.50523 0.05048 22 ft 79 kts 279°
2026-04-15 11:33 51.50553 0.04536 22 ft 18 kts 272°
2026-04-15 11:33 51.50530 0.04443 22 ft 7 kts 190°
2026-04-15 11:34 51.50504 0.04443 22 ft 3 kts 179°
2026-04-15 11:34 51.50490 0.04450 24 ft 0 kts 145°